GW5670 Weather Reports


Display with metric or nautical units.
time (UTC)temp
F
wind
direction
speed
MPH
gust
MPH
rain 1hr
in
rain 24hr
in
rain mn
in
humidity
%
barometer
mb
20260505170059 78 7 16.0 19.0 0.00 0.00 0.00 38 1014.2
20260505165554 78 117 2.0 5.0 0.00 0.00 0.00 42 1014.1
20260505165050 78 48 9.0 13.0 0.00 0.00 0.00 39 1014.3
20260505164546 78 0 18.0 21.0 0.00 0.00 0.00 38 1014.3
20260505164044 78 49 3.0 5.0 0.00 0.00 0.00 42 1014.5
20260505163542 78 64 6.0 11.0 0.00 0.00 0.00 43 1014.4
20260505163039 78 7 13.0 21.0 0.00 0.00 0.00 42 1014.8
20260505162532 77 37 7.0 13.0 0.00 0.00 0.00 43 1014.6
20260505162029 77 63 5.0 8.0 0.00 0.00 0.00 44 1014.8
20260505161525 77 307 9.0 11.0 0.00 0.00 0.00 44 1014.8
20260505161023 78 68 5.0 6.0 0.00 0.00 0.00 42 1014.9
20260505160521 76 334 6.0 10.0 0.00 0.00 0.00 45 1014.8
20260505152957 76 48 11.0 16.0 0.00 0.00 0.00 46 1014.9
20260505152454 75 346 11.0 16.0 0.00 0.00 0.00 46 1014.9
20260505151949 75 69 10.0 11.0 0.00 0.00 0.00 46 1014.9
20260505151445 75 72 3.0 3.0 0.00 0.00 0.00 48 1014.8
20260505150943 76 61 6.0 11.0 0.00 0.00 0.00 46 1014.7
20260505150439 75 327 14.0 19.0 0.00 0.00 0.00 45 1014.6
20260505140409 73 13 6.0 10.0 0.00 0.00 0.00 48 1014.9
20260505124823 67 42 6.0 6.0 0.00 0.00 0.00 56 1015.6
20260505124320 66 46 4.0 5.0 0.00 0.00 0.00 57 1015.6
20260505123816 65 80 1.0 2.0 0.00 0.00 0.00 58 1015.7
20260505123313 64 60 5.0 6.0 0.00 0.00 0.00 59 1015.7
20260505122808 64 103 1.0 2.0 0.00 0.00 0.00 60 1015.5
20260505122306 63 81 2.0 2.0 0.00 0.00 0.00 60 1015.6
20260505121802 63 71 3.0 5.0 0.00 0.00 0.00 61 1015.6
20260505121300 62 85 4.0 8.0 0.00 0.00 0.00 60 1015.6
20260505120756 63 77 3.0 5.0 0.00 0.00 0.00 61 1015.3
20260505120252 62 82 2.0 5.0 0.00 0.00 0.00 61 1015.5
20260505115751 62 320 6.0 8.0 0.00 0.00 0.00 63 1015.4
20260505115248 61 28 3.0 5.0 0.00 0.00 0.00 62 1015.3
20260505114746 61 51 6.0 8.0 0.00 0.00 0.00 64 1015.2
20260505114241 60 78 3.0 5.0 0.00 0.00 0.00 64 1015.4
20260505113738 60 313 6.0 6.0 0.00 0.00 0.00 65 1015.3
20260505113235 60 328 5.0 8.0 0.00 0.00 0.00 65 1015.2
20260505112731 60 86 2.0 2.0 0.00 0.00 0.00 65 1015.3
20260505112229 59 75 2.0 3.0 0.00 0.00 0.00 66 1015.2
20260505111729 59 46 6.0 6.0 0.00 0.00 0.00 66 1015.2
20260505111225 59 65 4.0 5.0 0.00 0.00 0.00 67 1015.0
20260505110721 59 35 7.0 11.0 0.00 0.00 0.00 67 1015.0
20260505110219 58 18 4.0 5.0 0.00 0.00 0.00 68 1014.9
20260505102154 59 80 3.0 3.0 0.00 0.00 0.00 67 1014.4
20260505101653 58 11 4.0 11.0 0.00 0.00 0.00 68 1014.4
20260505101148 59 14 8.0 13.0 0.00 0.00 0.00 67 1014.2
20260505100644 59 69 2.0 3.0 0.00 0.00 0.00 68 1014.5
20260505100142 59 355 5.0 6.0 0.00 0.00 0.00 67 1014.3
20260505095638 58 88 9.0 10.0 0.00 0.00 0.00 68 1014.3
20260505095135 58 10 5.0 6.0 0.00 0.00 0.00 68 1014.3
20260505094631 58 75 1.0 2.0 0.00 0.00 0.00 68 1014.2
20260505094127 58 66 2.0 2.0 0.00 0.00 0.00 69 1014.2
20260505093624 58 42 3.0 5.0 0.00 0.00 0.00 69 1014.0
20260505093121 58 53 2.0 3.0 0.00 0.00 0.00 69 1014.2
20260505092618 58 80 2.0 2.0 0.00 0.00 0.00 69 1014.2
20260505092117 57 71 2.0 3.0 0.00 0.00 0.00 70 1014.2
20260505091613 57 348 7.0 10.0 0.00 0.00 0.00 70 1014.0
20260505091112 58 36 4.0 6.0 0.00 0.00 0.00 70 1014.0
20260505090609 58 51 5.0 10.0 0.00 0.00 0.00 70 1014.2
20260505090107 58 79 3.0 5.0 0.00 0.00 0.00 70 1013.9
20260505085604 58 85 0.0 2.0 0.00 0.00 0.00 70 1014.2
20260505085102 58 76 2.0 2.0 0.00 0.00 0.00 70 1014.0
20260505084600 58 45 6.0 10.0 0.00 0.00 0.00 69 1014.2
20260505084058 58 13 3.0 6.0 0.00 0.00 0.00 70 1014.0
20260505083555 58 52 4.0 5.0 0.00 0.00 0.00 70 1014.1
20260505083051 58 43 3.0 5.0 0.00 0.00 0.00 70 1014.0
20260505082547 59 56 1.0 2.0 0.00 0.00 0.00 70 1014.1
20260505082044 59 28 3.0 5.0 0.00 0.00 0.00 69 1014.0
20260505081541 59 41 3.0 5.0 0.00 0.00 0.00 69 1014.0
20260505081038 59 11 3.0 5.0 0.00 0.00 0.00 69 1013.9
20260505080534 59 53 2.0 3.0 0.00 0.00 0.00 68 1013.8
20260505080031 59 6 4.0 6.0 0.00 0.00 0.00 68 1013.9
20260505075527 59 46 1.0 2.0 0.00 0.00 0.00 68 1013.9
20260505075024 60 31 5.0 6.0 0.00 0.00 0.00 68 1013.7
20260505074521 60 31 6.0 10.0 0.00 0.00 0.00 68 1013.7
20260505074018 60 82 1.0 3.0 0.00 0.00 0.00 67 1013.7
20260505073515 60 75 1.0 2.0 0.00 0.00 0.00 67 1013.6
20260505073014 60 34 3.0 5.0 0.00 0.00 0.00 67 1013.6
20260505072509 60 57 5.0 6.0 0.00 0.00 0.00 67 1013.7
20260505072005 60 87 2.0 3.0 0.00 0.00 0.00 67 1013.6
20260505071501 60 40 3.0 5.0 0.00 0.00 0.00 67 1013.7
20260505070959 60 76 1.0 2.0 0.00 0.00 0.00 67 1013.7
20260505070456 60 29 1.0 3.0 0.00 0.00 0.00 67 1013.6
20260505065952 60 67 3.0 3.0 0.00 0.00 0.00 67 1013.5
20260505065448 60 15 3.0 5.0 0.00 0.00 0.00 67 1013.6
20260505064945 60 56 4.0 6.0 0.00 0.00 0.00 67 1013.7
20260505064442 60 18 3.0 5.0 0.00 0.00 0.00 68 1013.6
20260505063940 59 66 2.0 3.0 0.00 0.00 0.00 68 1013.7
20260505063436 59 340 6.0 8.0 0.00 0.00 0.00 68 1013.9
20260505062933 59 40 4.0 5.0 0.00 0.00 0.00 68 1013.7
20260505062430 60 319 6.0 8.0 0.00 0.00 0.00 68 1013.8
20260505061927 60 69 2.0 3.0 0.00 0.00 0.00 68 1013.8
20260505061425 59 57 3.0 5.0 0.00 0.00 0.00 68 1013.7
20260505060922 59 82 2.0 3.0 0.00 0.00 0.00 68 1013.8
20260505060419 60 52 3.0 5.0 0.00 0.00 0.00 68 1013.8
20260505055915 60 82 1.0 2.0 0.00 0.00 0.00 67 1013.7
20260505055412 60 65 3.0 3.0 0.00 0.00 0.00 67 1013.5
20260505054908 60 83 0.0 2.0 0.00 0.00 0.00 67 1013.7
20260505054406 60 67 1.0 2.0 0.00 0.00 0.00 66 1013.7
20260505053904 61 59 2.0 3.0 0.00 0.00 0.00 66 1013.7
20260505053401 61 83 0.0 0.0 0.00 0.00 0.00 66 1013.8
20260505052857 61 70 0.0 2.0 0.00 0.00 0.00 66 1013.8
20260505052354 61 82 1.0 2.0 0.00 0.00 0.00 65 1014.0
20260505051852 61 62 3.0 3.0 0.00 0.00 0.00 65 1013.9
20260505051348 61 16 8.0 10.0 0.00 0.00 0.00 64 1013.9
20260505050847 61 73 2.0 3.0 0.00 0.00 0.00 64 1014.1
20260505050345 62 245 3.0 5.0 0.00 0.00 0.00 64 1014.1
20260505041312 62 77 1.0 2.0 0.00 0.00 0.00 61 1013.8
20260505040809 62 65 2.0 3.0 0.00 0.00 0.00 60 1013.9
20260505040307 62 72 1.0 2.0 0.00 0.00 0.00 59 1013.6
20260505035803 62 81 2.0 2.0 0.00 0.00 0.00 60 1013.5
20260505035259 62 34 1.0 3.0 0.00 0.00 0.00 60 1013.5
20260505034757 62 76 3.0 5.0 0.00 0.00 0.00 59 1013.5
20260505034253 62 40 4.0 5.0 0.00 0.00 0.00 59 1013.7
20260505033750 62 49 3.0 5.0 0.00 0.00 0.00 59 1013.6
20260505033248 62 18 4.0 5.0 0.00 0.00 0.00 59 1013.7
20260505032745 62 78 2.0 2.0 0.00 0.00 0.00 59 1013.8
20260505032241 62 322 4.0 5.0 0.00 0.00 0.00 59 1013.6
20260505031739 63 14 3.0 3.0 0.00 0.00 0.00 58 1013.6
20260505031235 63 69 2.0 2.0 0.00 0.00 0.00 57 1013.4
20260505030732 63 0 3.0 3.0 0.00 0.00 0.00 57 1013.8
20260505030228 64 68 2.0 2.0 0.00 0.00 0.00 56 1013.6
20260505025724 64 63 2.0 2.0 0.00 0.00 0.00 56 1013.7
20260505025222 64 66 3.0 3.0 0.00 0.00 0.00 56 1013.6
20260505024720 64 49 2.0 3.0 0.00 0.00 0.00 56 1013.6
20260505024217 64 348 3.0 5.0 0.00 0.00 0.00 56 1013.6
20260505023714 64 56 5.0 6.0 0.00 0.00 0.00 55 1013.7
20260505023211 64 59 3.0 5.0 0.00 0.00 0.00 55 1013.5
20260505022709 65 49 3.0 5.0 0.00 0.00 0.00 54 1013.8
20260505022206 65 20 6.0 8.0 0.00 0.00 0.00 54 1013.6
20260505021702 65 12 3.0 5.0 0.00 0.00 0.00 53 1013.5
20260505021159 65 17 3.0 5.0 0.00 0.00 0.00 54 1013.6
20260505020655 65 50 3.0 3.0 0.00 0.00 0.00 53 1013.6
20260505020151 66 79 2.0 3.0 0.00 0.00 0.00 53 1013.5
20260505015648 66 1 3.0 3.0 0.00 0.00 0.00 52 1013.4
20260505015145 66 33 6.0 6.0 0.00 0.00 0.00 51 1013.5
20260505014642 67 34 3.0 5.0 0.00 0.00 0.00 51 1013.5
20260505014139 67 46 4.0 5.0 0.00 0.00 0.00 51 1013.8
20260505013636 67 57 4.0 8.0 0.00 0.00 0.00 50 1013.4
20260505013133 67 64 10.0 13.0 0.00 0.00 0.00 49 1013.3
20260505012631 67 82 2.0 3.0 0.00 0.00 0.00 50 1013.3
20260505012128 67 13 4.0 8.0 0.00 0.00 0.00 49 1013.4
20260505011623 68 354 8.0 10.0 0.00 0.00 0.00 49 1013.2
20260505011121 67 314 1.0 3.0 0.00 0.00 0.00 50 1013.0
20260505010616 68 41 4.0 5.0 0.00 0.00 0.00 49 1013.0
20260505010113 68 80 2.0 5.0 0.00 0.00 0.00 48 1013.1
20260505005609 68 321 6.0 8.0 0.00 0.00 0.00 48 1013.0
20260505005107 68 341 7.0 8.0 0.00 0.00 0.00 48 1012.9
20260505004604 68 71 1.0 2.0 0.00 0.00 0.00 49 1013.0
20260505004100 68 39 3.0 5.0 0.00 0.00 0.00 47 1012.9
20260505003558 68 96 3.0 5.0 0.00 0.00 0.00 47 1012.8
20260505003055 69 92 5.0 6.0 0.00 0.00 0.00 47 1012.9
20260505002555 69 20 2.0 3.0 0.00 0.00 0.00 47 1012.9
20260505002055 69 36 7.0 8.0 0.00 0.00 0.00 46 1012.9
20260505001551 69 336 6.0 6.0 0.00 0.00 0.00 45 1012.9
20260505001048 69 351 10.0 11.0 0.00 0.00 0.00 45 1012.8
20260505000546 70 317 7.0 10.0 0.00 0.00 0.00 44 1012.9
20260505000043 70 61 4.0 5.0 0.00 0.00 0.00 45 1012.9
20260504235540 70 317 9.0 13.0 0.00 0.00 0.00 44 1012.8
20260504235037 70 38 9.0 11.0 0.00 0.00 0.00 43 1012.6
20260504234534 70 77 7.0 10.0 0.00 0.00 0.00 43 1012.8
20260504234031 70 351 11.0 16.0 0.00 0.00 0.00 43 1012.5
20260504233526 71 84 6.0 10.0 0.00 0.00 0.00 43 1012.6
20260504233023 71 9 6.0 10.0 0.00 0.00 0.00 42 1012.6
20260504232520 71 91 4.0 5.0 0.00 0.00 0.00 42 1012.5
20260504232018 71 138 4.0 5.0 0.00 0.00 0.00 42 1012.5
20260504231514 71 40 11.0 18.0 0.00 0.00 0.00 41 1012.6
20260504231010 72 84 4.0 6.0 0.00 0.00 0.00 41 1012.5
20260504230507 73 26 5.0 6.0 0.00 0.00 0.00 40 1012.7
20260504230006 73 57 5.0 6.0 0.00 0.00 0.00 40 1012.5
20260504225502 73 340 6.0 10.0 0.00 0.00 0.00 40 1012.5
20260504225000 73 33 6.0 6.0 0.00 0.00 0.00 40 1012.7
20260504224456 74 70 1.0 2.0 0.00 0.00 0.00 41 1012.6
20260504223953 74 26 9.0 11.0 0.00 0.00 0.00 38 1012.4
20260504223449 73 6 9.0 11.0 0.00 0.00 0.00 39 1012.5
20260504222945 73 38 7.0 11.0 0.00 0.00 0.00 40 1012.5
20260504222443 74 46 5.0 6.0 0.00 0.00 0.00 39 1012.4
20260504221940 74 347 5.0 6.0 0.00 0.00 0.00 39 1012.5
20260504221437 74 51 9.0 11.0 0.00 0.00 0.00 38 1012.5
20260504220934 74 244 6.0 8.0 0.00 0.00 0.00 39 1012.5
20260504220430 74 322 19.0 22.0 0.00 0.00 0.00 37 1012.5
20260504215928 73 353 9.0 13.0 0.00 0.00 0.00 38 1012.5
20260504215424 73 296 12.0 14.0 0.00 0.00 0.00 39 1012.4
20260504214921 73 312 7.0 10.0 0.00 0.00 0.00 39 1012.4
20260504214417 73 31 9.0 13.0 0.00 0.00 0.00 38 1012.3
20260504213914 73 299 7.0 10.0 0.00 0.00 0.00 38 1012.4
20260504213410 73 287 9.0 10.0 0.00 0.00 0.00 38 1012.5
20260504212908 73 11 10.0 16.0 0.00 0.00 0.00 38 1012.4
20260504212403 73 330 14.0 19.0 0.00 0.00 0.00 38 1012.5
20260504211901 73 359 11.0 13.0 0.00 0.00 0.00 38 1012.5
20260504211357 73 343 10.0 11.0 0.00 0.00 0.00 38 1012.5
20260504210855 73 347 7.0 14.0 0.00 0.00 0.00 39 1012.5
20260504210351 74 30 7.0 10.0 0.00 0.00 0.00 37 1012.6
20260504205848 74 5 6.0 6.0 0.00 0.00 0.00 38 1012.7
20260504205346 73 335 9.0 11.0 0.00 0.00 0.00 38 1012.7
20260504204844 72 33 5.0 6.0 0.00 0.00 0.00 41 1012.6
20260504204343 73 317 11.0 13.0 0.00 0.00 0.00 38 1012.6
20260504203841 73 134 7.0 8.0 0.00 0.00 0.00 41 1012.6
20260504203338 72 23 12.0 14.0 0.00 0.00 0.00 39 1012.7
20260504202834 73 272 10.0 11.0 0.00 0.00 0.00 39 1012.9
20260504202331 74 39 7.0 10.0 0.00 0.00 0.00 38 1012.8
20260504201828 74 272 5.0 8.0 0.00 0.00 0.00 40 1012.9
20260504201325 73 64 4.0 5.0 0.00 0.00 0.00 38 1012.8
20260504200822 73 72 7.0 8.0 0.00 0.00 0.00 38 1013.1
20260504200319 74 276 5.0 6.0 0.00 0.00 0.00 39 1013.2
20260504195815 74 58 7.0 10.0 0.00 0.00 0.00 40 1013.1
20260504195311 73 47 7.0 8.0 0.00 0.00 0.00 40 1013.2
20260504194808 73 34 4.0 5.0 0.00 0.00 0.00 39 1013.4
20260504194304 72 340 12.0 18.0 0.00 0.00 0.00 40 1013.4
20260504193800 72 98 12.0 16.0 0.00 0.00 0.00 39 1013.4
20260504193258 73 79 3.0 3.0 0.00 0.00 0.00 38 1013.7
20260504192756 73 332 8.0 10.0 0.00 0.00 0.00 40 1013.7
20260504192254 72 289 11.0 11.0 0.00 0.00 0.00 42 1013.9
20260504191753 72 81 2.0 3.0 0.00 0.00 0.00 39 1014.0
20260504191249 72 67 2.0 3.0 0.00 0.00 0.00 39 1014.1
20260504190744 72 49 4.0 6.0 0.00 0.00 0.00 39 1014.2
20260504190241 71 84 4.0 6.0 0.00 0.00 0.00 42 1014.3
20260504185737 71 67 6.0 8.0 0.00 0.00 0.00 40 1014.5
20260504185235 71 79 8.0 11.0 0.00 0.00 0.00 40 1014.5
20260504184731 72 1 11.0 13.0 0.00 0.00 0.00 39 1014.3
20260504184227 71 304 5.0 6.0 0.00 0.00 0.00 42 1014.4
20260504183723 71 67 8.0 14.0 0.00 0.00 0.00 41 1014.5
20260504183220 71 62 7.0 8.0 0.00 0.00 0.00 41 1014.6
20260504182718 71 326 12.0 14.0 0.00 0.00 0.00 40 1014.8
20260504182215 71 32 7.0 8.0 0.00 0.00 0.00 40 1014.8
20260504181712 70 19 5.0 5.0 0.00 0.00 0.00 39 1015.0
20260504181210 70 302 13.0 14.0 0.00 0.00 0.00 39 1015.1
20260504180709 71 344 5.0 6.0 0.00 0.00 0.00 41 1014.9
20260504180207 70 65 5.0 6.0 0.00 0.00 0.00 42 1015.1
20260504175704 70 43 8.0 13.0 0.00 0.00 0.00 39 1015.2
20260504175200 70 321 8.0 10.0 0.00 0.00 0.00 41 1015.3
20260504174658 70 9 5.0 8.0 0.00 0.00 0.00 40 1015.3
20260504174155 69 64 2.0 3.0 0.00 0.00 0.00 41 1015.2
20260504173652 68 72 3.0 5.0 0.00 0.00 0.00 40 1015.4
20260504173149 68 24 7.0 10.0 0.00 0.00 0.00 39 1015.4
20260504172646 68 315 11.0 13.0 0.00 0.00 0.00 41 1015.4
20260504172142 69 355 7.0 8.0 0.00 0.00 0.00 40 1015.4
20260504171639 69 9 8.0 10.0 0.00 0.00 0.00 39 1015.6
20260504171136 69 357 12.0 14.0 0.00 0.00 0.00 39 1015.7
20260504170632 68 90 2.0 3.0 0.00 0.00 0.00 39 1015.5